DMSP 5D-2 F13 DEB, 40470

Orbit data source: Space-Track

DMSP 5D-2 F13 DEB, 40470 is space debris in SSO originally from a launch on Fri, 24 Mar 1995 UTC launched from the Air Force Western Test Range (AFWTR). Debris objects in space refer to the collection of defunct objects orbiting the Earth. Examples of debris include non-operational satellites, rocket bodies, and fragments generated from explosions, collisions, or faulty payload assembly.

Loading next visibility...
Identifier
40470, 1995-015BN
Orbit
SSO
Country
Flag of USUS
Related business
Manufacturer
Unknown
Mission
Spacecraft
Bus & Motor
Unknown
Mass
Unknown
Launch date (UTC)
1995-03-24 (31 years ago)
Launch vehicle
Unknown
Launch site
Air Force Western Test Range (AFWTR)
Object type
Payload
Rocket body
Debris
Shape & HBR
Unknown shape, 0.1 m
Radar Cross Section
Medium (>0.1 m² and <1 m²)

Expand to show TLE details & history
Last TLE update: 17 hours ago

TLE from 17 hours ago
0 DMSP 5D-2 F13 DEB
1 40470U 95015BN  26235.45918851  .00002182  00000-0  96839-3 0  9995
2 40470  98.9991 237.5046 0041383 252.9776 106.6865 14.23671422589484
Epoch: 2026-08-23T11:01Z
TLE epoch observation values (Epoch: 2026-08-23T11:01:13.887Z)
Latitude
-0.00002°
Longitude
100.4418°
Altitude
824.532 km
Speed
7.436 km/s
True Right ascension
15h 50m 01s
True Declination
0° 00' 00"
Sunlit
Object was in daylight at epoch
Visualization orbit readout
Latitude
Unknown
Longitude
Unknown
Altitude
Unknown
Speed
Unknown
Apparent Right ascension
Unknown
Apparent Declination
Unknown
Sunlit
N/A
Visualization observer readout
Local Sidereal Time
19:32:20
Azimuth
Unknown
Elevation
Unknown
Doppler factor
Unknown
Orbital elements
Apogee altitude
839.878 km
Perigee altitude
780.384 km
Semi-major axis
7,188.268 km
Eccentricity
0.00414
Inclination
98.9991°
RAAN
237.5046°
Arg. of periapsis
252.9776°
True anomaly
107.14007°
Mean anomaly
106.6865°
Eccentric anomaly
106.91335°
Mean motion
3.56129 °/min
Orbital period
101.09 mins
BSTAR
0.00096839
Loading maneuver chart data...
Computing Atmospheric mass density...

Documentation

Showing up to 5 results
|